RH
19 20 23 27 29 32 41 59 60 54 47 49 45 46 48 48 50 50 51 51 55 61 61 68 70 66 66 69 74 66 66 63
29 32 35 34 38 33 47 53 56 46 46 48 50 53 48 51 46 49 48 53 54 60 60 60 61 62 66 65 65 65 60 67
27 33 38 46 45 48 55 46 41 39 40 48 50 50 49 47 49 52 51 55 52 44 58 57 60 63 66 70 73 67 62 62
30 35 44 47 46 45 37 38 41 49 48 39 44 47 46 48 47 48 49 49 46 50 54 58 63 64 64 67 68 68 69 62
25 34 41 45 48 49 41 40 38 42 47 49 50 49 52 53 58 55 54 53 53 46 51 60 65 68 67 70 54 74 74 72
30 33 36 39 48 52 48 41 38 40 44 48 53 60 62 62 64 61 55 57 54 50 52 60 67 65 67 72 71 78 79 83
30 32 36 40 48 50 48 41 36 40 46 52 57 57 58 57 57 59 55 55 54 56 53 63 66 67 66 73 83 80 87 86
32 31 33 38 44 45 45 43 40 42 45 46 50 53 57 57 58 60 58 57 60 59 62 63 64 65 67 67 74 79 78 88
34 34 37 38 42 44 46 44 41 41 50 50 53 56 53 54 59 58 62 63 63 60 62 61 66 69 74 73 78 78 82 88
31 32 37 38 41 45 50 46 44 45 52 57 56 56 59 59 58 60 62 63 51 61 70 67 67 72 75 78 81 80 82 86
34 33 39 39 41 49 55 50 46 46 48 55 51 53 54 55 57 60 65 62 59 63 69 72 71 72 71 72 79 77 78 83
35 35 37 38 42 43 51 50 48 50 48 52 56 55 54 55 58 63 63 65 63 63 60 64 66 68 82 85 82 74 69 69
37 40 42 41 45 46 47 53 53 52 52 52 49 51 50 53 58 57 60 60 63 59 60 60 63 65 74 78 79 73 70 70
38 42 42 40 41 46 46 50 51 51 47 47 46 50 51 54 54 54 56 57 56 54 48 49 46 49 48 49 50 53 54 53
44 46 44 41 42 42 42 44 55 53 48 46 50 54 51 51 52 51 53 52 48 46 46 47 50 43 39 49 48 56 58 52
47 49 44 41 41 38 36 38 44 51 52 50 55 51 48 49 53 51 52 51 44 45 44 48 50 44 47 64 59 60 60 58
44 43 39 36 35 32 30 33 37 46 41 48 45 48 46 53 55 54 51 49 46 48 51 51 54 35 72 70 70 71 62 61
46 39 34 31 28 27 28 29 30 39 40 40 50 69 64 63 52 45 43 50 53 56 56 55 58 60 72 71 71 67 66 62
39 30 29 29 27 25 27 24 26 29 32 43 56 61 59 53 55 53 49 51 55 56 60 59 63 53 70 71 74 74 70 67
Wind_Speed
13 13 8 3 4 6 10 9 16 11 5 5 1 3 3 0 3 5 7 5 7 6 5 6 6 5 5 5 5 5 6 6
17 11 9 8 8 7 14 11 9 3 2 4 5 4 4 5 5 7 6 6 7 6 5 6 6 6 6 7 5 7 7 5
13 10 9 11 13 12 8 7 7 8 5 4 3 2 2 2 5 6 7 7 7 8 6 5 5 5 7 7 6 6 6 6
11 13 11 11 12 10 13 12 10 8 7 7 5 5 5 4 5 5 6 9 6 6 6 5 5 5 5 6 6 7 6 7
11 13 11 10 10 10 9 7 6 7 7 5 2 1 2 2 3 6 7 4 6 7 7 7 6 4 6 5 7 5 5 6
11 11 11 10 7 6 5 5 5 3 5 2 2 4 5 4 4 5 5 6 7 7 7 7 6 5 6 7 5 6 4 4
8 8 10 8 6 5 4 5 2 5 5 1 3 4 4 4 4 4 6 4 5 6 7 6 6 5 6 5 5 7 5 5
4 6 7 5 3 1 2 7 9 7 1 3 4 3 6 7 6 5 7 5 4 6 6 6 5 6 5 5 4 3 2 2
6 6 4 5 6 6 5 5 9 9 6 6 6 8 5 5 6 5 3 3 4 6 9 9 8 7 6 7 5 4 5 5
3 4 5 1 1 4 4 3 5 7 6 7 8 7 7 5 4 3 3 5 8 9 7 9 8 7 6 6 5 6 5 6
4 6 7 7 9 9 9 7 9 9 9 6 5 5 4 4 4 5 7 7 8 9 8 10 10 9 9 10 7 7 7 5
4 11 12 11 11 8 7 9 10 9 7 6 6 5 4 5 4 6 6 6 8 7 8 8 8 8 5 3 8 9 7 8
12 12 12 11 10 11 10 9 7 6 7 6 8 6 6 7 6 6 5 5 5 7 6 7 7 7 6 8 9 9 9 8
8 8 10 12 12 11 10 8 6 3 5 6 7 5 6 7 6 4 5 5 6 6 7 7 8 7 8 7 7 7 9 9
10 11 11 11 10 10 7 7 3 5 8 6 5 3 2 3 5 5 6 6 6 6 6 7 7 8 10 8 9 9 8 9
12 12 12 10 10 9 10 9 8 8 9 6 7 4 4 5 3 3 5 6 6 6 7 7 7 7 6 6 7 8 9 11
13 14 12 11 12 11 12 11 11 4 8 9 9 9 4 5 4 5 5 5 5 6 6 6 6 6 9 9 9 8 10 11
13 12 11 10 11 12 13 14 15 10 10 7 6 7 5 6 5 6 8 6 6 6 6 5 5 5 7 11 9 6 8 10
12 10 10 10 12 12 12 14 16 18 15 5 6 4 6 8 3 4 8 6 5 6 5 5 5 6 14 13 8 6 7 9
Wind_Direction
151 159 170 104 8 40 79 83 91 217 150 86 319 154 217 187 30 56 48 356 15 357 326 307 300 298 297 304 315 317 303 291
62 58 45 55 36 14 78 71 28 37 83 62 40 25 7 33 19 36 21 34 18 355 320 326 330 322 317 318 320 308 301 301
65 63 52 40 50 85 91 102 56 28 53 71 63 11 7 357 33 8 24 35 5 329 300 296 330 343 332 325 329 324 319 323
79 70 55 49 45 51 68 70 57 30 7 54 25 18 15 25 11 357 334 333 293 293 328 345 343 351 331 317 313 324 328 321
95 90 79 69 54 51 59 68 88 78 25 101 55 40 266 286 355 335 302 312 330 347 349 355 342 343 314 308 331 321 332 317
72 83 87 82 74 53 50 99 80 80 120 62 262 332 355 330 283 276 334 23 359 357 357 339 350 326 315 298 313 351 15 10
91 110 110 106 89 60 30 353 337 172 220 285 18 321 290 338 341 8 19 2 357 341 342 334 325 331 314 352 46 49 36 34
94 92 85 85 63 59 292 351 339 343 72 45 301 329 9 13 24 24 8 336 337 330 333 324 311 313 7 7 3 109 80 68
64 48 14 26 10 349 358 4 332 339 13 4 22 37 28 19 23 3 326 346 328 322 352 343 14 27 15 19 1 353 5 343
144 246 164 149 360 358 24 340 335 317 359 36 40 27 17 6 356 326 321 350 354 359 360 354 349 5 7 10 342 323 334 304
348 12 22 23 17 11 10 4 26 28 37 28 20 340 335 340 343 339 32 3 347 341 359 356 342 349 349 334 317 306 311 300
22 24 25 20 9 352 36 36 16 359 2 4 328 324 345 338 360 36 20 0 352 337 324 307 309 304 301 291 274 288 298 300
18 17 15 12 16 4 8 360 339 353 337 328 326 341 7 350 1 11 353 317 302 312 301 300 283 280 260 260 265 270 267 276
17 9 358 350 349 353 325 303 330 329 315 309 321 359 2 355 327 324 318 314 299 317 333 318 321 308 300 298 307 341 2 345
12 354 343 343 338 303 307 327 30 287 280 272 306 13 314 285 297 355 342 329 324 322 320 320 316 322 322 12 354 346 340 334
355 330 329 332 323 322 315 318 304 354 313 291 286 231 225 252 359 354 325 314 318 332 326 319 317 314 36 18 1 344 331 321
331 336 328 327 332 329 332 313 310 267 292 269 302 307 268 8 357 323 310 310 328 313 313 314 322 347 72 36 19 338 328 322
328 318 326 339 341 330 327 330 321 301 295 297 9 25 344 292 280 333 324 323 304 303 301 313 357 11 52 19 349 323 310 318
310 324 331 343 325 326 333 334 328 320 317 341 308 310 256 259 41 339 297 295 300 299 332 4 357 343 346 339 336 309 314 310